Location: Capelle
(50.3413°N, 1.9974°E)
Time: 00:11:42
(UTC+00:00)

USA 238 - Pass Details

Date: 12 January 2026
Orbit: 883 x 1328 km, 63.4° (Epoch: 10 January)

Event Time Altitude Azimuth Distance (km) Brightness Sun altitude
Rises 16:45:55 0° 312° (NW) 3,853 6.9 -5.4°
Reaches altitude 10° 16:48:36 10° 318° (NW) 2,961 6.2 -5.7°
Maximum altitude 16:55:26 47° 31° (NNE) 1,539 4.2 -6.7°
Drops below altitude 10° 17:02:57 10° 104° (ESE) 3,251 5.8 -7.8°
Sets 17:06:01 0° 110° (ESE) 4,262 6.4 -8.2°
